Location: Klein M�hlingen
(51.9472°N, 11.7453°E)
Time: 06:58:09
(UTC+00:00)

Envisat - Pass Details

Date: 05 October 2021
Orbit: 764 x 766 km, 98.2° (Epoch: 22 October)

Event Time Altitude Azimuth Distance (km) Brightness Sun altitude
Rises 04:22:30 0° 16° (NNE) 3,245 6.5 -9.8°
Reaches altitude 10° 04:24:50 10° 19° (NNE) 2,314 5.8 -9.4°
Maximum altitude 04:29:56 69° 102° (ESE) 820 3.4 -8.6°
Drops below altitude 10° 04:34:58 10° 186° (S) 2,296 5.4 -7.9°
Sets 04:37:17 0° 189° (S) 3,218 6.1 -7.5°
